Weather observations for the past three days for
Tillamook, Tillamook Airport
Metric (Imperial)
Date Time (pdt) Wind (kph) Vis. (km) Weather Sky Cond. Temperature (ºC) Relative Humidity Wind Chill (°C) Heat Index (°C) Pressure Precipitation (cm)
Air Dwpt 6 hour altimeter (cm) sea level (mb) 1 hr 3 hr 6 hr
Max. Min.
07 14:35 NW 20 16.09 Fair CLR 16 9 63% 76.5 0.0
07 14:15 NW 19 16.09 Fair CLR 16 8 59% 76.5 0.0
07 13:55 NW 17 G 28 16.09 Fair CLR 16 8 59% 76.48 0.0
07 13:35 NW 15 16.09 Fair CLR 16 8 59% 76.5 0.0
07 13:15 NW 17 16.09 Fair CLR 16 9 63% 76.5 0.0
07 12:55 NW 15 16.09 Fair CLR 16 9 63% 76.5 0.0
07 12:35 NW 17 16.09 Fair CLR 16 8 59% 76.5 0.0
07 12:15 NW 13 G 22 16.09 Fair CLR 16 8 59% 76.53 0.0
07 11:55 NW 13 16.09 Fair CLR 16 8 59% 76.56 0.0
07 11:35 Vrbl 6 16.09 Fair CLR 15 8 63% 76.56 0.0
07 11:15 Calm 16.09 Fair CLR 14 8 67% 76.58 0.0
07 10:55 Vrbl 6 16.09 Partly Cloudy SCT026 14 8 67% 76.58 0.0
07 10:35 Calm 16.09 Mostly Cloudy BKN027 13 8 72% 76.61 0.0
07 10:15 Calm 16.09 Overcast OVC027 13 8 72% 76.61 0.0
07 09:55 Vrbl 7 16.09 Overcast OVC024 13 8 72% 76.63 0.0
07 09:35 NW 7 16.09 Overcast OVC022 12 8 77% 76.63 0.0
07 09:15 NW 7 16.09 Overcast OVC021 12 8 77% 76.63 0.0
07 08:55 NW 7 16.09 Overcast OVC022 11 7 77% 76.63 0.0
07 08:35 Calm 16.09 Overcast OVC023 11 7 77% 76.63 0.0
07 08:15 Calm 16.09 Overcast OVC023 11 7 77% 76.63 0.0
07 07:55 Calm 16.09 Overcast OVC023 11 7 77% 76.63 0.0
07 07:35 W 6 16.09 Overcast OVC023 11 8 82% 76.63 0.0
07 07:15 Calm 16.09 Overcast OVC022 10 8 88% 76.63 0.0
07 06:55 Calm 16.09 Overcast OVC021 10 8 88% 76.61 0.0
07 06:35 N 9 16.09 Overcast OVC021 10 9 94% 9 76.61 0.0
07 06:15 Calm 16.09 Overcast OVC021 10 8 88% 76.61 0.0
07 05:55 Calm 16.09 Overcast OVC021 10 8 88% 76.58 0.0
07 05:35 Calm 16.09 Overcast OVC022 10 9 94% 76.58 0.0
07 05:15 Calm 16.09 Overcast OVC025 10 10 100% 76.61 0.0
07 04:55 Calm 16.09 Overcast OVC026 10 10 100% 76.63 0.0
07 04:35 Calm 16.09 Overcast OVC028 11 9 88% 76.63 0.0
07 04:15 W 6 11.27 Overcast OVC027 11 9 88% 76.63 0.0
07 03:55 Calm 14.48 Overcast OVC027 11 9 88% 76.63 0.0
07 03:35 Calm 16.09 Overcast OVC028 11 9 88% 76.66 0.0
07 03:15 Calm 16.09 Overcast OVC028 11 9 88% 76.66 0.0
07 02:55 Calm 16.09 Overcast OVC028 11 9 88% 76.66 0.0
07 02:35 Calm 16.09 Overcast OVC028 12 10 88% 76.68 0.0
07 02:15 Calm 16.09 Overcast OVC028 12 10 88% 76.68 0.0
07 01:55 W 6 16.09 Overcast OVC027 12 10 88% 76.71 0.0
07 01:35 NW 6 16.09 Overcast OVC027 12 10 88% 76.71 0.0
07 01:15 NW 9 16.09 Overcast OVC027 12 10 88% 76.71 0.0
07 00:55 Calm 16.09 Overcast OVC026 12 11 94% 76.71 0.0
07 00:15 Calm 16.09 Overcast OVC025 12 10 88% 76.68 0.0
06 23:55 NW 6 16.09 Overcast OVC024 13 9 77% 76.68 0.0
06 23:35 NW 9 16.09 Overcast OVC022 12 9 82% 76.71 0.0
06 23:15 NW 13 16.09 Overcast OVC022 13 10 82% 76.71 0.0
06 22:55 NW 11 16.09 Overcast OVC022 13 10 82% 76.71 0.0
06 22:35 NW 7 16.09 Overcast OVC021 12 11 94% 76.73 0.0
06 22:15 NW 9 16.09 Overcast OVC021 12 12 100% 76.73 0.0
06 21:55 NW 11 16.09 Overcast OVC021 12 12 100% 76.73 0.0
06 21:35 NW 11 16.09 Overcast OVC023 12 11 94% 76.73 0.0
06 21:15 NW 13 16.09 Overcast OVC024 13 11 88% 76.73 0.0
06 20:35 NW 17 16.09 Overcast OVC025 13 11 88% 76.71 0.0
06 20:15 NW 13 16.09 Overcast OVC024 13 11 88% 76.71 0.0
06 19:55 NW 19 16.09 Overcast OVC023 13 11 88% 76.68 0.0
06 19:35 NW 15 16.09 Overcast FEW017 OVC024 13 12 94% 76.68 0.0
06 19:15 NW 15 16.09 Overcast BKN017 OVC023 13 12 94% 76.68 0.0
06 18:55 NW 11 16.09 Overcast BKN020 OVC024 13 12 94% 76.68 0.0
06 18:35 NW 9 16.09 Overcast SCT017 OVC024 13 12 94% 76.71 0.0
06 18:15 NW 13 16.09 Overcast BKN016 OVC024 13 12 94% 76.71 0.0
06 17:55 NW 11 16.09 Unknown Precip BKN015 OVC021 13 12 94% 76.71 0.0
06 17:35 NW 13 16.09 Overcast FEW015 OVC021 13 12 94% 76.71 0.0
06 17:15 NW 15 16.09 Overcast BKN014 OVC022 13 12 94% 76.71 0.0
06 16:55 W 9 16.09 Overcast BKN014 OVC018 14 12 88% 76.71 0.0
06 16:35 W 13 16.09 Overcast BKN013 OVC023 14 12 88% 76.71 0.0
06 16:15 W 13 16.09 Overcast OVC023 14 12 88% 76.73 0.0
06 15:55 W 11 16.09 Overcast OVC023 14 12 88% 76.73 0.0
06 15:35 W 13 16.09 Overcast FEW015 OVC024 14 12 88% 76.76 0.0
06 15:15 W 13 16.09 Overcast FEW015 OVC023 14 12 88% 76.76 0.0
06 14:55 W 13 16.09 Overcast OVC023 14 12 88% 76.73 0.0
06 14:35 W 11 16.09 Overcast OVC020 14 11 82% 76.73 0.0
06 14:15 W 11 16.09 Overcast OVC019 14 11 82% 76.73 0.0
06 13:55 W 11 16.09 Overcast OVC019 14 11 82% 76.73 0.0
06 13:35 W 11 16.09 Overcast OVC019 14 11 82% 76.73 0.0
06 13:15 W 11 16.09 Overcast OVC020 14 11 82% 76.71 0.0
06 12:55 W 9 16.09 Overcast OVC020 14 11 82% 76.73 0.0
06 12:35 W 9 16.09 Overcast OVC019 14 11 82% 76.71 0.0
06 12:15 Vrbl 6 16.09 Overcast OVC018 14 11 82% 76.71 0.0
06 11:55 W 9 16.09 Overcast OVC017 14 11 82% 76.71 0.0
06 11:35 W 11 16.09 Overcast OVC017 14 11 82% 76.71 0.0
06 11:15 W 11 16.09 Overcast OVC017 14 11 82% 76.71 0.0
06 10:55 W 13 16.09 Overcast OVC017 14 11 82% 76.68 0.0
06 10:35 Calm 16.09 Overcast OVC017 14 11 82% 76.66 0.0
06 10:15 Calm 16.09 Overcast OVC016 14 11 82% 76.66 0.0
06 09:55 W 7 16.09 Overcast OVC016 13 11 88% 76.66 0.0
06 09:35 Calm 16.09 Overcast OVC016 13 11 88% 76.63 0.0
06 09:15 W 7 16.09 Overcast OVC016 13 11 88% 76.63 0.0
06 08:55 Calm 16.09 Overcast OVC016 13 11 88% 76.63 0.0
06 08:35 SW 7 16.09 Overcast OVC016 13 11 88% 76.63 0.0
06 08:15 SW 9 16.09 Overcast OVC016 13 11 88% 76.61 0.0
06 07:55 SE 9 16.09 Overcast OVC018 12 11 94% 76.58 0.0
06 07:35 SE 7 16.09 Overcast OVC017 12 12 100% 76.58 0.0
06 07:15 Calm 16.09 Overcast BKN015 OVC019 12 11 94% 76.61 0.0
06 06:55 Calm 16.09 Overcast OVC017 12 11 94% 76.61 0.0
06 06:35 W 6 14.48 Overcast OVC014 12 11 94% 76.61 0.0
06 06:15 Calm 16.09 Overcast OVC015 12 11 94% 76.56 0.0
06 05:55 Calm 16.09 Overcast OVC016 12 12 100% 76.58 0.0
06 05:35 Calm 16.09 Overcast OVC016 12 12 100% 76.56 0.0
06 05:15 Calm 16.09 Overcast OVC012 12 12 100% 76.53 0.0
06 04:55 Calm 16.09 Overcast OVC011 12 12 100% 76.53 0.0
06 04:35 Calm 16.09 Overcast OVC013 12 12 100% 76.5 0.0
06 04:15 Calm 14.48 Overcast OVC014 12 11 94% 76.53 0.0
06 03:55 Calm 11.27 Overcast OVC014 12 12 100% 76.5 0.0
06 03:35 W 6 14.48 Overcast OVC012 12 12 100% 76.5 0.0
06 03:15 W 6 14.48 Overcast OVC012 12 11 94% 76.5 0.0
06 02:55 Calm 14.48 Overcast OVC012 13 11 88% 76.48 0.0
06 02:35 Vrbl 6 16.09 Overcast OVC013 13 12 94% 76.48 0.0
06 02:15 Calm 16.09 Overcast OVC013 13 12 94% 76.45 0.0
06 01:55 Calm 16.09 Overcast OVC014 13 12 94% 76.45 0.0
06 01:35 W 6 16.09 Overcast OVC014 13 12 94% 76.45 0.0
06 01:15 Calm 16.09 Overcast OVC013 13 11 88% 76.43 0.0
06 00:55 Calm 16.09 Overcast OVC013 13 11 88% 76.43 0.0
06 00:35 Calm 16.09 Overcast OVC014 13 12 94% 76.4 0.0
06 00:15 Calm 16.09 Overcast OVC014 13 11 88% 76.4 0.0
05 23:55 Calm 16.09 Overcast OVC015 13 12 94% 76.38 0.0
05 23:35 Calm 16.09 Overcast OVC015 13 12 94% 76.38 0.0
05 23:15 Calm 16.09 Overcast OVC015 13 11 88% 76.38 0.0
05 22:55 Calm 16.09 Overcast OVC015 13 11 88% 76.38 0.0
05 22:15 Calm 16.09 Overcast OVC016 13 11 88% 76.38 0.0
05 21:55 Calm 16.09 Overcast OVC016 14 11 82% 76.38 0.0
05 21:35 Calm 16.09 Overcast OVC016 14 11 82% 76.35 0.0
05 21:15 Calm 16.09 Overcast OVC016 14 11 82% 76.35 0.0
05 20:55 Calm 16.09 Overcast OVC017 14 11 82% 76.35 0.0
05 20:35 NW 7 16.09 Overcast OVC017 14 11 82% 76.33 0.0
05 20:15 W 6 16.09 Overcast OVC017 14 11 82% 76.3 0.0
05 19:55 W 7 16.09 Overcast OVC018 14 11 82% 76.3 0.0
05 19:35 W 9 16.09 Overcast OVC018 14 11 82% 76.28 0.0
05 19:15 W 6 16.09 Overcast OVC018 14 11 82% 76.28 0.0
05 18:55 NW 9 16.09 Overcast OVC018 14 11 82% 76.28 0.0
05 18:35 NW 7 16.09 Overcast OVC019 15 11 77% 76.28 0.0
05 18:15 NW 9 16.09 Overcast OVC020 15 11 77% 76.28 0.0
05 17:55 NW 15 16.09 Overcast OVC021 15 11 77% 76.28 0.0
05 17:35 NW 13 16.09 Overcast OVC020 15 11 77% 76.28 0.0
05 17:15 NW 13 16.09 Overcast OVC020 15 12 82% 76.28 0.0
05 16:55 NW 15 16.09 Overcast OVC021 16 12 77% 76.28 0.0
05 16:35 W 11 16.09 Overcast OVC022 16 12 77% 76.28 0.0
05 16:15 W 15 16.09 Overcast OVC022 16 11 72% 76.28 0.0
05 15:55 SW 11 16.09 Overcast OVC023 16 11 72% 76.3 0.0
05 15:35 W 9 16.09 Overcast OVC022 16 11 72% 76.3 0.0
05 15:15 W 9 16.09 Overcast OVC022 16 12 77% 76.3 0.0
05 14:55 W 7 16.09 Overcast OVC023 16 11 72% 76.3 0.0
05 14:35 W 13 16.09 Overcast OVC022 16 12 77% 76.3 0.0
05 14:15 NW 7 16.09 Overcast OVC022 15 11 77% 76.33 0.0
05 13:55 NW 6 16.09 Overcast OVC021 15 11 77% 76.33 0.0
05 13:35 N 7 16.09 Overcast OVC020 15 11 77% 76.33 0.0
05 13:15 Calm 16.09 Overcast OVC018 15 11 77% 76.33 0.0
05 12:35 NW 7 16.09 Overcast OVC018 14 11 82% 76.33 0.0
05 12:15 Calm 16.09 Overcast OVC017 15 11 77% 76.33 0.0
05 11:55 Calm 16.09 Overcast OVC017 14 11 82% 76.33 0.0
05 11:35 W 7 16.09 Overcast OVC017 14 11 82% 76.33 0.0
05 11:15 W 7 4.02 Overcast with Haze OVC017 14 11 82% 76.33 0.0
05 10:55 Calm 6.44 Overcast with Haze OVC017 14 11 82% 76.3 0.0
05 10:35 Calm 3.22 Fog/Mist OVC016 14 11 82% 76.3 0.0
05 10:15 Calm 1.21 Light Rain Fog/Mist OVC016 13 11 88% 76.28 0.0
05 09:55 Calm 14.48 Overcast OVC018 14 12 88% 76.28 0.0
05 09:35 Calm 12.87 Overcast OVC018 13 12 94% 76.28 0.0
05 09:15 Calm 16.09 Overcast OVC018 13 12 94% 76.25 0.0
05 08:55 Calm 16.09 Overcast OVC018 13 12 94% 76.25 0.0
05 08:35 Calm 16.09 Overcast OVC019 13 12 94% 76.25 0.0
05 08:15 Calm 16.09 Overcast OVC020 13 12 94% 76.25 0.0
05 07:55 NE 6 16.09 Overcast OVC020 12 12 100% 76.23 0.0
05 07:35 Calm 16.09 Overcast OVC018 12 12 100% 76.23 0.0
05 07:15 Calm 16.09 Overcast OVC018 12 12 100% 76.23 0.0
05 06:55 NE 7 16.09 Overcast OVC019 12 12 100% 76.2 0.0
05 06:35 Calm 16.09 Overcast OVC018 12 12 100% 76.2 0.0
05 06:15 Calm 16.09 Overcast OVC018 12 12 100% 76.2 0.0
05 05:55 Calm 12.87 Overcast OVC017 12 12 100% 76.17 0.0
05 05:35 Calm 16.09 Overcast OVC017 12 12 100% 76.17 0.0
05 05:15 Calm 12.87 Overcast OVC016 12 12 100% 76.17 0.0
05 04:55 Calm 8.05 Unknown Precip Fog/Mist OVC015 12 12 100% 76.17 0.0
05 04:35 Calm 11.27 Unknown Precip OVC014 12 12 100% 76.17 0.0
05 04:15 Calm 16.09 Overcast FEW005 OVC015 12 12 100% 76.15 0.0
05 03:55 Calm 14.48 Overcast OVC013 12 12 100% 76.15 0.0
05 03:35 Calm 9.66 Unknown Precip Fog/Mist OVC012 12 12 100% 76.15 0.0
05 03:15 Calm 14.48 Overcast OVC011 12 12 100% 76.15 0.0
05 02:55 Calm 12.87 Overcast OVC011 12 12 100% 76.15 0.0
05 02:35 Calm 16.09 Overcast OVC011 12 12 100% 76.15 0.0
05 02:15 Vrbl 6 14.48 Unknown Precip OVC012 12 12 100% 76.15 0.0
05 01:55 Calm 14.48 Unknown Precip BKN010 OVC013 13 12 94% 76.15 0.0
05 01:35 Calm 14.48 Overcast SCT008 OVC013 12 12 100% 76.15 0.0
05 01:15 Calm 16.09 Overcast SCT010 OVC014 13 12 94% 76.12 0.0
05 00:55 SW 6 16.09 Overcast OVC013 12 12 100% 76.12 0.0
05 00:35 SE 6 16.09 Overcast OVC013 13 12 94% 76.12 0.0
05 00:15 Calm 16.09 Overcast OVC014 13 12 94% 76.12 0.0
04 23:55 Calm 16.09 Overcast OVC013 12 12 100% 76.12 0.0
04 23:35 Calm 14.48 Overcast OVC013 12 12 100% 76.12 0.0
04 23:15 S 7 11.27 Unknown Precip OVC012 12 12 100% 76.12 0.0
04 22:55 SW 6 6.44 Unknown Precip Fog/Mist OVC012 13 12 94% 76.12 0.0
04 22:35 S 11 16.09 Overcast OVC014 13 11 88% 76.12 0.0
04 22:15 S 7 16.09 Overcast OVC016 13 11 88% 76.12 0.0
04 21:55 SW 7 16.09 Overcast OVC018 13 11 88% 76.12 0.0
04 21:35 SW 13 16.09 Overcast OVC018 13 11 88% 76.1 0.0
04 21:15 Vrbl 9 16.09 Overcast OVC017 13 12 94% 76.1 0.0
04 20:55 SW 13 16.09 Overcast OVC017 13 12 94% 76.07 0.0
04 20:35 SW 11 16.09 Overcast OVC017 13 12 94% 76.07 0.0
04 20:15 SW 11 16.09 Overcast OVC017 13 12 94% 76.07 0.0
04 19:55 W 15 16.09 Overcast BKN015 OVC020 13 12 94% 76.05 0.0
04 19:35 W 15 16.09 Overcast BKN014 OVC022 14 12 88% 76.05 0.0
04 19:15 SW 22 16.09 Overcast OVC022 14 12 88% 76.05 0.0
04 18:55 SW 17 16.09 Overcast OVC022 14 11 82% 76.05 0.0
04 18:35 SW 20 G 30 16.09 Overcast OVC023 14 11 82% 76.07 0.0
04 18:15 SW 20 16.09 Overcast OVC024 15 12 82% 76.07 0.0
04 17:55 SW 19 16.09 Overcast OVC023 15 12 82% 76.07 0.0
04 17:35 SW 17 G 30 16.09 Overcast OVC024 15 12 82% 76.07 0.0
04 17:15 SW 15 16.09 Overcast OVC025 15 12 82% 76.07 0.0
04 16:55 SW 17 G 26 16.09 Overcast OVC023 15 12 82% 76.07 0.0
04 16:35 SW 20 16.09 Overcast OVC023 16 12 77% 76.07 0.0
04 16:15 SW 20 16.09 Overcast OVC023 16 12 77% 76.07 0.0
04 15:55 SW 22 16.09 Overcast OVC023 16 12 77% 76.07 0.0
04 15:35 SW 19 16.09 Overcast OVC023 17 12 73% 76.07 0.0
04 15:15 SW 17 16.09 Overcast OVC023 17 12 73% 76.07 0.0
Date Time (pdt) Wind (kph) Vis. (km) Weather Sky Cond. Air Dwpt Max. Min. Relative Humidity Wind Chill (°C) Heat Index (°C) altimeter (cm) sea level (mb) 1 hr 3 hr 6 hr
6 hour
Temperature (ºC) Pressure Precipitation (cm)